DECAYED

NOAA 16 DEB, 41414 (Decayed)

Orbit data source: Space-Track

NOAA 16 DEB, 41414 was space debris in SSO originally from a launch on Thu, 21 Sep 2000 UTC launched from the Air Force Western Test Range (AFWTR). Debris objects in space refer to the collection of defunct objects orbiting the Earth. Examples of debris include non-operational satellites, rocket bodies, and fragments generated from explosions, collisions, or faulty payload assembly.

Not visible in the next 10 days
Identifier
41414, 2000-055KT
Orbit
Decayed
Country
Flag of USUS
Related business
Manufacturer
Unknown
Mission
Decayed spacecraft
Bus & Motor
Unknown
Mass
Unknown
Launch date (UTC)
2000-09-21 (25 years ago)
Launch vehicle
Unknown
Launch site
Air Force Western Test Range (AFWTR)
Object type
Payload
Rocket body
Debris
Shape & HBR
Unknown shape, 0.1 m
Radar Cross Section
Small (<0.1 m²)

Expand to show TLE details & history
Last TLE update: 2 months ago

TLE from 2 months ago
0 NOAA 16 DEB
1 41414U 00055KT  25237.66979125  .01019998  00000-0  14574-1 0  9997
2 41414  98.9235 131.9911 0019356 146.1082 214.1407 15.53519225498506
Epoch: 2025-08-25T16:04Z
TLE epoch observation values (Epoch: 2025-08-25T16:04:29.963Z)
Latitude
-0.00005°
Longitude
-83.30627°
Altitude
420.427 km
Speed
7.653 km/s
True Right ascension
08h 47m 57s
True Declination
0° 00' 00"
Sunlit
Object was in daylight at epoch
Visualization orbit readout
Latitude
Unknown
Longitude
Unknown
Altitude
Unknown
Speed
Unknown
Apparent Right ascension
Unknown
Apparent Declination
Unknown
Sunlit
N/A
Visualization observer readout
Local Sidereal Time
08:51:02
Azimuth
Unknown
Elevation
Unknown
Doppler factor
Unknown
Orbital elements
Apogee altitude
416.581 km
Perigee altitude
390.328 km
Semi-major axis
6,781.591 km
Eccentricity
0.00194
Inclination
98.9235°
RAAN
131.9911°
Arg. of periapsis
146.1082°
True anomaly
214.01647°
Mean anomaly
214.1407°
Eccentric anomaly
214.07856°
Mean motion
3.88638 °/min
Orbital period
92.63 mins
BSTAR
0.014574
Loading maneuver chart data...
Computing Atmospheric mass density...
Loading historical data...
Loading historical data...
Loading historical data...
Loading historical data...
Loading historical data...
Loading historical data...
Loading historical data...

Documentation

Showing up to 5 results
|